SCP
0 0 0 0 0 0 0 0 0 0 0 0 0 0 0 0 0 0 0 0 0 0 0 0 0 0 0 0 0 0 0 0 0 0 0 0 0 0 0 0 0 0 0 0 0 0 0
0 0 0 0 0 0 0 0 0 0 0 0 0 0 0 0 0 0 0 0 0 0 0 0 0 0 0 0 0 0 0 0 0 0 0 0 0 0 0 0 0 0 0 0 0 0 0
0 0 0 0 0 0 0 0 0 0 0 0 0 0 0 0 0 0 0 0 0 0 0 0 0 0 0 0 0 0 0 0 0 0 0 0 0 0 0 0 0 0 0 0 0 0 0
0 0 0 0 0 0 0 0 0 0 0 0 0 0 0 0 0 0 0 0 0 0 0 0 0 0 0 0 0 0 0 0 0 0 0 0 0 0 0 0 0 0 0 0 0 -0 0
0 0 0 0 0 0 0 0 0 0 0 0 0 0 0 0 0 0 0 0 0 0 0 0 0 0 0 0 0 0 0 0 0 0 0 0 0 0 0 0 0 0 0 0 0 0 0
0 0 0 0 0 0 0 0 0 0 0 0 0 0 0 0 0 0 0 0 0 0 0 0 0 0 0 0 0 0 0 0 0 0 0 0 0 0 0 0 0 0 0 0 0 -0 0
0 0 0 0 0 0 0 0 0 0 0 0 0 0 0 0 0 0 0 0 0 0 0 0 0 0 0 0 0 0 0 0 0 0 0 0 0 0 0 0 0 0 0 0 0 0 0
0 0 0 0 0 0 0 0 0 0 0 0 0 0 0 0 0 0 0 0 0 0 0 0 0 0 0 0 0 0 0 0 0 0 0 0 0 0 0 0 0 0 0 0 0 0 0
0 0 0 0 0 0 0 -0 0 0 0 0 0 0 0 0 0 0 0 0 0 0 0 0 0 0 0 0 0 0 0 0 0 0 0 0 0 0 0 0 0 0 0 0 0 0 -0
0 0 0 0 0 0 0 0 -0 0 0 0 0 0 0 0 0 0 0 0 0 0 0 0 0 0 0 0 0 0 0 0 0 0 0 0 0 0 0 0 0 0 0 0 0 0 0
0 0 -0 0 0 0 0 0 0 0 0 0 0 0 0 0 0 0 0 0 0 0 0 0 0 0 0 0 0 0 0 0 0 0 0 0 0 0 0 0 0 0 0 0 0 0 0
0 0 0 0 0 0 0 0 0 0 0 0 0 0 0 0 0 0 0 0 0 0 0 0 0 0 0 0 0 0 0 0 0 0 0 0 0 0 0 0 0 0 0 0 0 0 0
0 0 0 0 0 0 0 0 0 0 0 0 0 0 0 0 0 0 0 0 0 0 0 0 0 0 0 0 0 0 0 0 0 0 0 0 0 0 0 0 0 0 0 0 0 0 0
0 0 0 0 0 0 0 0 0 0 0 0 0 0 0 0 0 0 0 0 0 0 0 0 0 0 0 0 0 0 0 0 0 0 0 0 0 0 0 0 0 0 0 0 0 0 0
0 0 0 0 0 0 0 0 0 -0 0 -0 0 0 0 0 0 0 0 0 0 0 0 0 0 0 0 0 0 0 0 0 0 0 0 0 0 0 0 0 0 0 0 0 0 0 0
0 0 0 0 0 0 0 0 0 0 0 0 0 0 0 0 0 0 0 0 0 0 0 0 0 0 0 0 0 0 0 0 0 0 0 0 0 0 0 0 0 0 0 0 0 0 0
0 -0 0 0 0 0 0 0 0 0 0 0 0 0 0 0 0 0 0 0 0 0 0 0 0 0 0 0 0 0 0 0 0 0 0 0 0 0 0 0 0 0 0 0 0 0 0
0 0 -0 0 0 0 0 0 -0 -0 -0 0 0 0 0 0 0 0 0 0 -0 0 0 0 0 0 0 0 0 0 0 0 0 0 0 0 0 0 0 0 0 0 0 0 0 0 0
0 0 0 -0 0 0 0 -0 -0 0 -0 0 0 0 0 0 0 0 0 0 0 -0 0 0 0 0 0 0 0 0 0 0 0 0 0 0 0 0 0 0 0 0 0 0 0 0 0
0 0 0 -0 0 0 0 -0 0 0 0 0 0 0 0 0 0 0 0 0 0 0 -0 -0 0 0 0 0 0 0 0 0 0 0 0 0 0 0 0 0 0 0 0 0 0 0 0
0 0 0 0 -0 -0 0 0 0 0 0 0 0 0 0 0 0 0 0 0 0 -0 0 0 -0 0 0 0 0 0 0 0 0 0 0 0 0 0 0 0 0 0 0 0 0 0 0
0 0 0 -0 -0 0 0 0 0 0 0 0 0 0 0 0 0 0 0 0 0 0 0 0 0 0 0 0 0 0 0 0 0 0 0 0 0 0 0 0 0 0 0 0 0 0 0
0 0 -0 0 -0 0 0 0 0 0 0 0 0 0 0 0 0 0 0 0 0 0 0 0 0 0 0 0 0 0 0 0 0 0 0 0 0 0 0 0 0 0 0 0 0 0 0
0 0 0 0 0 0 0 0 0 0 0 0 0 0 0 0 0 0 0 0 0 0 0 0 0 0 0 0 -0 0 0 -0 0 0 0 0 0 0 0 0 0 0 0 0 0 0 0
-0 0 0 0 -0 0 0 0 0 0 0 0 0 0 0 0 0 0 0 0 0 0 0 0 0 0 0 0 0 0 0 0 0 0 0 0 0 -0 0 0 0 0 0 0 0 0 0
0 0 -0 0 0 0 0 0 0 0 0 0 0 0 0 0 0 0 0 0 0 0 0 0 0 0 0 0 0 0 0 0 0 0 0 0 0 0 0 0 0 0 0 0 0 0 0
0 0 0 0 0 0 0 0 0 0 0 0 0 0 0 0 0 0 0 0 0 0 0 0 0 0 0 0 0 0 0 0 0 0 0 0 0 0 0 0 0 -0 0 0 0 0 0
0 0 0 0 0 0 0 0 0 0 0 0 0 0 0 0 0 0 0 0 0 0 0 -0 0 0 0 0 0 0 0 0 0 0 -0 0 0 0 0 0 0 -0 -0 0 0 0 0
-0 0 -0 -0 -0 -0 0 0 0 0 0 0 0 0 0 0 0 0 0 0 -0 -0 -0 -0 0 0 0 0 0 0 0 0 0 -0 0 0 0 0 0 0 0 0 0 0 0 0 0
Wind_Speed_500mb
46 48 48 51 49 48 51 44 46 43 39 38 36 36 28 32 39 38 35 43 48 43 39 35 31 30 29 11 20 30 25 21 10 14 20 16 21 23 10 11 25 10 12 22 20 20 17
54 51 56 59 56 52 51 53 48 46 45 44 41 39 33 35 34 33 32 32 38 47 43 38 33 30 22 13 18 24 21 16 10 14 19 23 8 26 11 19 8 8 14 23 22 23 21
53 56 58 59 58 59 59 57 57 55 51 52 43 43 39 34 38 37 33 31 34 33 35 35 29 29 28 44 27 20 19 17 15 14 10 20 19 10 5 9 17 12 12 16 22 28 14
54 60 57 53 62 65 60 61 59 59 58 55 48 45 45 42 36 36 37 36 38 35 31 29 27 28 24 26 28 35 33 26 20 20 21 15 20 14 10 4 6 7 8 7 3 21 10
57 59 59 62 60 62 66 65 63 62 60 55 54 49 48 47 50 41 35 33 42 38 29 25 26 25 26 29 37 43 38 24 17 18 18 9 13 10 10 5 5 10 9 15 7 6 12
60 61 61 62 59 66 62 65 68 66 62 64 59 56 53 51 48 40 35 35 33 28 17 17 20 10 40 18 23 30 30 32 15 17 11 12 11 6 7 11 12 12 9 11 15 10 5
64 66 66 62 66 59 70 62 68 70 75 70 67 67 71 68 52 38 34 24 20 14 38 27 29 30 10 29 20 18 29 33 20 20 12 18 11 23 27 29 16 9 14 13 6 7 2
70 66 63 65 69 62 68 61 49 73 72 78 73 74 66 58 49 40 37 29 22 12 18 64 65 48 55 8 11 25 38 30 25 17 20 10 30 20 21 25 21 18 13 13 15 7 4
65 68 71 69 68 70 72 69 72 51 67 75 66 62 60 56 48 46 49 48 32 20 15 37 64 78 61 37 27 42 53 33 21 27 30 25 1 37 29 22 23 21 20 11 11 3 13
70 70 66 66 69 68 68 72 77 67 68 57 68 68 63 54 46 51 52 44 33 10 10 17 28 47 67 50 28 51 66 39 14 33 26 26 37 8 29 25 20 20 17 19 10 4 6
70 70 73 71 70 65 67 70 65 74 77 58 66 60 57 56 36 32 47 39 38 17 12 14 30 27 54 74 37 64 62 56 29 26 19 16 13 32 20 21 15 7 4 14 11 7 9
71 72 75 77 73 72 69 68 67 68 76 64 49 64 56 48 50 46 39 38 43 11 26 14 27 28 33 72 27 47 57 39 29 23 27 24 0 17 11 14 24 15 12 13 9 2 7
75 73 69 73 67 66 69 67 63 67 67 74 73 53 52 52 53 50 50 41 12 25 11 14 17 29 35 33 45 30 40 43 22 19 28 22 18 5 10 11 9 14 13 4 4 0 13
83 70 66 64 62 61 62 71 62 61 63 60 69 53 61 60 60 55 56 17 29 34 35 18 21 28 37 32 49 35 41 38 46 27 20 24 12 28 14 15 20 24 19 10 14 9 8
76 65 65 60 58 61 64 70 63 63 61 60 64 60 49 60 57 66 44 28 20 25 42 30 31 31 31 36 18 48 47 47 42 45 18 22 15 36 36 17 25 12 18 6 7 1 4
77 71 68 68 65 64 69 72 70 65 64 62 61 60 65 65 58 56 28 45 23 30 29 53 50 21 26 35 29 43 35 36 44 48 25 8 6 9 23 29 22 16 19 8 3 8 10
70 71 77 70 67 69 70 60 54 59 56 52 63 39 80 76 57 42 23 20 26 45 44 37 27 49 28 28 40 38 30 24 55 44 47 12 5 3 12 25 34 9 15 12 13 11 11
73 70 71 69 66 67 59 53 54 50 54 46 41 16 42 56 25 14 29 13 18 24 37 26 22 27 37 42 34 43 43 29 41 44 49 47 7 8 35 2 20 40 30 35 13 8 8
69 70 73 73 65 69 59 53 48 49 49 42 17 30 35 53 24 33 19 15 30 37 40 7 8 17 12 24 35 40 40 36 46 27 45 37 17 16 7 9 18 21 39 38 21 6 14
68 70 70 70 64 67 58 54 50 43 47 53 28 9 35 48 39 37 33 41 30 27 29 30 32 37 34 30 29 23 33 18 48 39 28 33 30 50 39 46 20 18 19 41 36 10 29
71 73 79 87 70 66 61 63 52 46 45 69 34 14 20 13 30 34 41 33 40 37 47 42 26 43 37 28 36 29 37 26 24 33 10 11 25 44 44 37 14 35 33 33 41 54 30
77 79 79 66 53 46 48 53 55 48 40 63 24 13 15 12 21 46 44 47 55 48 26 39 36 28 38 30 21 15 26 29 30 19 27 30 12 12 31 44 33 36 35 45 50 52 44
74 76 70 63 51 56 59 56 56 54 43 36 28 27 14 6 20 17 33 47 43 44 52 48 40 35 38 36 46 47 52 54 46 25 22 18 11 15 37 44 37 38 47 38 46 52 49
80 77 68 58 59 61 68 66 60 57 54 62 33 21 11 12 11 17 20 35 41 45 47 45 56 35 53 48 40 30 49 57 49 38 25 18 19 18 29 22 50 33 48 47 39 42 44
80 78 67 63 60 63 59 52 46 55 58 59 52 41 16 6 17 25 31 33 34 49 44 41 50 55 60 52 24 24 14 12 29 38 30 18 15 13 15 31 29 11 23 45 47 57 43
84 82 78 65 63 65 64 60 60 60 59 61 71 63 38 3 15 40 23 31 29 27 28 30 66 59 53 19 23 25 25 10 10 8 36 35 30 25 27 20 30 23 27 36 40 44 43
95 93 85 78 69 67 65 64 61 60 65 68 60 75 50 19 32 25 10 13 37 27 21 21 40 36 63 30 27 20 28 18 20 20 25 34 33 40 38 29 25 35 20 33 38 27 49
114 111 103 93 83 75 72 69 61 63 60 65 72 61 74 27 21 25 33 37 28 26 26 27 23 31 19 30 25 10 12 19 22 40 50 36 32 33 36 45 57 9 9 14 16 46 55
111 91 89 79 111 84 79 81 82 89 74 74 54 82 58 27 12 23 46 58 58 54 45 27 25 18 28 19 17 13 8 10 31 34 25 50 34 21 22 12 4 11 13 5 27 21 25
Wind_Direction_500mb
300 297 298 301 301 296 298 294 296 291 296 302 299 303 288 292 287 281 288 277 270 270 273 281 287 290 307 306 268 278 289 292 271 210 195 192 199 215 232 234 235 230 272 290 279 293 280
293 292 290 290 288 285 288 288 287 286 284 289 290 295 293 283 288 295 282 292 284 267 267 264 280 282 287 261 260 276 284 282 256 207 203 186 222 227 311 280 221 16 304 293 291 276 254
302 298 291 285 287 284 282 279 276 277 275 284 282 284 285 291 280 284 281 281 289 287 271 262 268 272 258 250 270 275 294 268 236 202 244 218 234 215 280 255 250 286 304 280 240 234 235
303 302 293 292 288 286 283 277 275 272 273 276 276 277 275 282 284 292 276 272 279 289 277 269 252 264 254 259 264 258 259 252 241 216 199 220 224 232 245 342 227 237 199 293 18 197 153
300 296 296 291 283 287 286 280 276 273 270 271 275 273 279 267 275 280 280 277 277 282 278 263 237 243 271 260 240 245 243 230 224 220 214 193 193 225 175 231 242 198 253 204 253 225 119
316 305 300 293 293 279 278 281 275 274 270 268 267 268 274 282 280 263 277 273 292 280 262 218 219 270 242 229 232 233 226 204 195 183 159 172 203 220 208 187 206 211 220 241 247 177 192
310 307 307 303 292 302 278 273 273 271 270 268 268 267 274 276 265 258 265 289 289 248 215 203 200 200 48 193 224 208 200 177 169 177 178 199 208 206 205 214 254 357 324 290 249 102 184
302 306 305 303 300 303 299 281 292 269 266 267 263 264 269 261 256 250 245 233 250 300 292 234 239 234 236 263 238 201 183 169 187 191 200 173 233 217 219 220 237 264 272 275 300 124 104
308 302 299 299 297 294 296 296 293 286 261 265 256 252 256 255 254 246 237 237 226 293 269 258 234 238 222 223 227 198 180 185 185 195 200 210 116 204 226 222 218 225 239 240 247 333 231
307 307 299 295 293 292 291 291 290 289 275 271 254 251 249 252 253 241 237 234 215 240 270 243 215 233 220 219 244 212 199 172 182 206 199 235 234 227 212 227 201 237 211 230 264 340 244
305 304 301 292 292 290 288 285 285 282 280 271 243 246 241 237 234 226 228 223 203 143 269 193 189 185 196 186 137 202 198 204 200 189 182 205 193 206 223 208 181 220 119 187 207 231 326
302 301 299 290 287 286 286 286 281 280 282 278 263 253 242 233 236 232 197 198 178 184 236 213 156 172 162 198 208 162 178 198 207 209 226 207 144 181 194 179 195 136 106 73 66 114 266
300 300 301 295 287 286 286 280 275 276 270 270 267 235 230 239 238 242 210 185 203 210 186 200 169 172 186 184 210 167 182 200 176 187 207 202 194 184 198 114 143 177 151 63 359 283 230
291 295 298 296 288 286 284 285 277 275 263 265 264 240 230 230 245 234 226 238 209 225 218 132 155 174 198 165 207 198 185 197 213 199 164 189 197 174 183 182 175 194 181 153 190 199 231
309 294 292 292 288 284 285 288 284 275 268 256 260 258 231 229 230 235 235 222 221 205 201 245 158 176 210 194 188 203 200 208 202 207 179 187 237 183 176 181 142 185 224 215 68 108 19
299 298 286 283 283 282 290 289 269 268 271 246 244 245 237 229 223 214 225 247 253 257 261 207 234 195 188 210 205 192 197 213 215 213 224 194 143 192 171 200 207 157 149 137 254 182 234
298 298 290 280 280 282 288 282 267 264 256 248 238 231 242 223 213 208 224 233 246 270 270 246 242 234 223 194 214 202 206 219 202 206 213 204 179 201 148 209 185 138 198 199 158 203 187
302 302 298 294 278 280 286 276 260 264 269 240 240 197 215 214 212 233 234 185 229 267 288 282 258 259 257 240 213 215 223 200 208 207 201 213 225 161 202 264 208 209 207 191 177 214 236
298 300 304 289 277 272 278 280 265 259 243 258 237 230 231 202 209 233 221 222 226 247 249 246 283 244 257 254 258 242 238 222 241 219 206 196 213 205 125 323 245 222 222 214 233 77 209
300 306 297 298 272 263 265 270 265 264 251 215 207 230 221 214 222 218 231 233 231 218 249 242 252 283 267 256 276 267 242 252 223 229 226 215 211 217 218 219 140 191 203 225 212 219 221
306 302 300 296 274 256 259 257 257 262 244 222 193 215 203 202 225 216 219 227 234 236 236 239 241 241 261 229 243 266 269 241 272 240 214 196 217 214 231 250 213 199 193 213 221 222 213
300 299 303 302 271 262 264 254 256 253 247 223 202 197 184 225 208 212 220 226 228 232 204 221 225 230 234 268 250 254 261 265 236 235 228 220 230 241 240 240 238 243 211 206 210 227 226
311 308 299 287 279 262 249 250 249 248 242 236 210 205 169 220 218 207 218 232 228 227 235 233 220 222 236 241 248 268 272 266 280 283 252 264 252 233 242 233 231 236 231 211 229 231 214
309 307 297 284 274 265 252 242 236 238 237 239 232 194 185 225 200 224 228 223 234 234 231 213 217 222 235 241 253 256 262 245 263 275 260 272 266 248 253 239 229 221 224 220 218 238 229
309 307 295 280 271 267 262 255 245 242 232 234 232 206 199 219 218 237 236 228 233 237 242 253 242 223 229 230 238 241 244 248 239 245 264 248 249 267 258 244 264 217 207 203 207 226 227
306 304 296 286 269 263 256 252 242 242 239 234 233 225 211 207 231 240 248 244 236 234 240 245 240 234 217 213 218 213 219 204 213 251 225 236 231 237 256 244 272 211 225 205 213 238 217
304 297 289 279 271 259 254 252 240 247 239 227 229 218 199 202 231 222 229 235 237 230 238 230 239 221 216 220 227 214 220 187 232 246 238 219 229 232 238 249 249 261 293 272 220 225 219
306 301 290 279 258 255 248 246 242 246 229 225 226 236 194 200 215 204 229 236 246 230 230 246 236 227 215 214 225 212 187 204 219 236 239 228 218 227 230 241 242 226 307 286 304 247 247
325 307 293 266 254 244 247 243 240 232 229 217 220 198 204 199 216 224 240 248 252 251 264 249 227 214 202 203 201 208 231 155 210 237 253 226 217 201 192 209 276 170 207 218 332 319 332
Wind_Speed_850mb
46 48 48 51 49 48 51 44 46 43 39 38 36 36 28 32 39 38 35 43 48 43 39 35 31 30 29 11 20 30 25 21 10 14 20 16 21 23 10 11 25 10 12 22 20 20 17
54 51 56 59 56 52 51 53 48 46 45 44 41 39 33 35 34 33 32 32 38 47 43 38 33 30 22 13 18 24 21 16 10 14 19 23 8 26 11 19 8 8 14 23 22 23 21
53 56 58 59 58 59 59 57 57 55 51 52 43 43 39 34 38 37 33 31 34 33 35 35 29 29 28 44 27 20 19 17 15 14 10 20 19 10 5 9 17 12 12 16 22 28 14
54 60 57 53 62 65 60 61 59 59 58 55 48 45 45 42 36 36 37 36 38 35 31 29 27 28 24 26 28 35 33 26 20 20 21 15 20 14 10 4 6 7 8 7 3 21 10
57 59 59 62 60 62 66 65 63 62 60 55 54 49 48 47 50 41 35 33 42 38 29 25 26 25 26 29 37 43 38 24 17 18 18 9 13 10 10 5 5 10 9 15 7 6 12
60 61 61 62 59 66 62 65 68 66 62 64 59 56 53 51 48 40 35 35 33 28 17 17 20 10 40 18 23 30 30 32 15 17 11 12 11 6 7 11 12 12 9 11 15 10 5
64 66 66 62 66 59 70 62 68 70 75 70 67 67 71 68 52 38 34 24 20 14 38 27 29 30 10 29 20 18 29 33 20 20 12 18 11 23 27 29 16 9 14 13 6 7 2
70 66 63 65 69 62 68 61 49 73 72 78 73 74 66 58 49 40 37 29 22 12 18 64 65 48 55 8 11 25 38 30 25 17 20 10 30 20 21 25 21 18 13 13 15 7 4
65 68 71 69 68 70 72 69 72 51 67 75 66 62 60 56 48 46 49 48 32 20 15 37 64 78 61 37 27 42 53 33 21 27 30 25 1 37 29 22 23 21 20 11 11 3 13
70 70 66 66 69 68 68 72 77 67 68 57 68 68 63 54 46 51 52 44 33 10 10 17 28 47 67 50 28 51 66 39 14 33 26 26 37 8 29 25 20 20 17 19 10 4 6
70 70 73 71 70 65 67 70 65 74 77 58 66 60 57 56 36 32 47 39 38 17 12 14 30 27 54 74 37 64 62 56 29 26 19 16 13 32 20 21 15 7 4 14 11 7 9
71 72 75 77 73 72 69 68 67 68 76 64 49 64 56 48 50 46 39 38 43 11 26 14 27 28 33 72 27 47 57 39 29 23 27 24 0 17 11 14 24 15 12 13 9 2 7
75 73 69 73 67 66 69 67 63 67 67 74 73 53 52 52 53 50 50 41 12 25 11 14 17 29 35 33 45 30 40 43 22 19 28 22 18 5 10 11 9 14 13 4 4 0 13
83 70 66 64 62 61 62 71 62 61 63 60 69 53 61 60 60 55 56 17 29 34 35 18 21 28 37 32 49 35 41 38 46 27 20 24 12 28 14 15 20 24 19 10 14 9 8
76 65 65 60 58 61 64 70 63 63 61 60 64 60 49 60 57 66 44 28 20 25 42 30 31 31 31 36 18 48 47 47 42 45 18 22 15 36 36 17 25 12 18 6 7 1 4
77 71 68 68 65 64 69 72 70 65 64 62 61 60 65 65 58 56 28 45 23 30 29 53 50 21 26 35 29 43 35 36 44 48 25 8 6 9 23 29 22 16 19 8 3 8 10
70 71 77 70 67 69 70 60 54 59 56 52 63 39 80 76 57 42 23 20 26 45 44 37 27 49 28 28 40 38 30 24 55 44 47 12 5 3 12 25 34 9 15 12 13 11 11
73 70 71 69 66 67 59 53 54 50 54 46 41 16 42 56 25 14 29 13 18 24 37 26 22 27 37 42 34 43 43 29 41 44 49 47 7 8 35 2 20 40 30 35 13 8 8
69 70 73 73 65 69 59 53 48 49 49 42 17 30 35 53 24 33 19 15 30 37 40 7 8 17 12 24 35 40 40 36 46 27 45 37 17 16 7 9 18 21 39 38 21 6 14
68 70 70 70 64 67 58 54 50 43 47 53 28 9 35 48 39 37 33 41 30 27 29 30 32 37 34 30 29 23 33 18 48 39 28 33 30 50 39 46 20 18 19 41 36 10 29
71 73 79 87 70 66 61 63 52 46 45 69 34 14 20 13 30 34 41 33 40 37 47 42 26 43 37 28 36 29 37 26 24 33 10 11 25 44 44 37 14 35 33 33 41 54 30
77 79 79 66 53 46 48 53 55 48 40 63 24 13 15 12 21 46 44 47 55 48 26 39 36 28 38 30 21 15 26 29 30 19 27 30 12 12 31 44 33 36 35 45 50 52 44
74 76 70 63 51 56 59 56 56 54 43 36 28 27 14 6 20 17 33 47 43 44 52 48 40 35 38 36 46 47 52 54 46 25 22 18 11 15 37 44 37 38 47 38 46 52 49
80 77 68 58 59 61 68 66 60 57 54 62 33 21 11 12 11 17 20 35 41 45 47 45 56 35 53 48 40 30 49 57 49 38 25 18 19 18 29 22 50 33 48 47 39 42 44
80 78 67 63 60 63 59 52 46 55 58 59 52 41 16 6 17 25 31 33 34 49 44 41 50 55 60 52 24 24 14 12 29 38 30 18 15 13 15 31 29 11 23 45 47 57 43
84 82 78 65 63 65 64 60 60 60 59 61 71 63 38 3 15 40 23 31 29 27 28 30 66 59 53 19 23 25 25 10 10 8 36 35 30 25 27 20 30 23 27 36 40 44 43
95 93 85 78 69 67 65 64 61 60 65 68 60 75 50 19 32 25 10 13 37 27 21 21 40 36 63 30 27 20 28 18 20 20 25 34 33 40 38 29 25 35 20 33 38 27 49
114 111 103 93 83 75 72 69 61 63 60 65 72 61 74 27 21 25 33 37 28 26 26 27 23 31 19 30 25 10 12 19 22 40 50 36 32 33 36 45 57 9 9 14 16 46 55
111 91 89 79 111 84 79 81 82 89 74 74 54 82 58 27 12 23 46 58 58 54 45 27 25 18 28 19 17 13 8 10 31 34 25 50 34 21 22 12 4 11 13 5 27 21 25
Wind_Direction_850mb
300 297 298 301 301 296 298 294 296 291 296 302 299 303 288 292 287 281 288 277 270 270 273 281 287 290 307 306 268 278 289 292 271 210 195 192 199 215 232 234 235 230 272 290 279 293 280
293 292 290 290 288 285 288 288 287 286 284 289 290 295 293 283 288 295 282 292 284 267 267 264 280 282 287 261 260 276 284 282 256 207 203 186 222 227 311 280 221 16 304 293 291 276 254
302 298 291 285 287 284 282 279 276 277 275 284 282 284 285 291 280 284 281 281 289 287 271 262 268 272 258 250 270 275 294 268 236 202 244 218 234 215 280 255 250 286 304 280 240 234 235
303 302 293 292 288 286 283 277 275 272 273 276 276 277 275 282 284 292 276 272 279 289 277 269 252 264 254 259 264 258 259 252 241 216 199 220 224 232 245 342 227 237 199 293 18 197 153
300 296 296 291 283 287 286 280 276 273 270 271 275 273 279 267 275 280 280 277 277 282 278 263 237 243 271 260 240 245 243 230 224 220 214 193 193 225 175 231 242 198 253 204 253 225 119
316 305 300 293 293 279 278 281 275 274 270 268 267 268 274 282 280 263 277 273 292 280 262 218 219 270 242 229 232 233 226 204 195 183 159 172 203 220 208 187 206 211 220 241 247 177 192
310 307 307 303 292 302 278 273 273 271 270 268 268 267 274 276 265 258 265 289 289 248 215 203 200 200 48 193 224 208 200 177 169 177 178 199 208 206 205 214 254 357 324 290 249 102 184
302 306 305 303 300 303 299 281 292 269 266 267 263 264 269 261 256 250 245 233 250 300 292 234 239 234 236 263 238 201 183 169 187 191 200 173 233 217 219 220 237 264 272 275 300 124 104
308 302 299 299 297 294 296 296 293 286 261 265 256 252 256 255 254 246 237 237 226 293 269 258 234 238 222 223 227 198 180 185 185 195 200 210 116 204 226 222 218 225 239 240 247 333 231
307 307 299 295 293 292 291 291 290 289 275 271 254 251 249 252 253 241 237 234 215 240 270 243 215 233 220 219 244 212 199 172 182 206 199 235 234 227 212 227 201 237 211 230 264 340 244
305 304 301 292 292 290 288 285 285 282 280 271 243 246 241 237 234 226 228 223 203 143 269 193 189 185 196 186 137 202 198 204 200 189 182 205 193 206 223 208 181 220 119 187 207 231 326
302 301 299 290 287 286 286 286 281 280 282 278 263 253 242 233 236 232 197 198 178 184 236 213 156 172 162 198 208 162 178 198 207 209 226 207 144 181 194 179 195 136 106 73 66 114 266
300 300 301 295 287 286 286 280 275 276 270 270 267 235 230 239 238 242 210 185 203 210 186 200 169 172 186 184 210 167 182 200 176 187 207 202 194 184 198 114 143 177 151 63 359 283 230
291 295 298 296 288 286 284 285 277 275 263 265 264 240 230 230 245 234 226 238 209 225 218 132 155 174 198 165 207 198 185 197 213 199 164 189 197 174 183 182 175 194 181 153 190 199 231
309 294 292 292 288 284 285 288 284 275 268 256 260 258 231 229 230 235 235 222 221 205 201 245 158 176 210 194 188 203 200 208 202 207 179 187 237 183 176 181 142 185 224 215 68 108 19
299 298 286 283 283 282 290 289 269 268 271 246 244 245 237 229 223 214 225 247 253 257 261 207 234 195 188 210 205 192 197 213 215 213 224 194 143 192 171 200 207 157 149 137 254 182 234
298 298 290 280 280 282 288 282 267 264 256 248 238 231 242 223 213 208 224 233 246 270 270 246 242 234 223 194 214 202 206 219 202 206 213 204 179 201 148 209 185 138 198 199 158 203 187
302 302 298 294 278 280 286 276 260 264 269 240 240 197 215 214 212 233 234 185 229 267 288 282 258 259 257 240 213 215 223 200 208 207 201 213 225 161 202 264 208 209 207 191 177 214 236
298 300 304 289 277 272 278 280 265 259 243 258 237 230 231 202 209 233 221 222 226 247 249 246 283 244 257 254 258 242 238 222 241 219 206 196 213 205 125 323 245 222 222 214 233 77 209
300 306 297 298 272 263 265 270 265 264 251 215 207 230 221 214 222 218 231 233 231 218 249 242 252 283 267 256 276 267 242 252 223 229 226 215 211 217 218 219 140 191 203 225 212 219 221
306 302 300 296 274 256 259 257 257 262 244 222 193 215 203 202 225 216 219 227 234 236 236 239 241 241 261 229 243 266 269 241 272 240 214 196 217 214 231 250 213 199 193 213 221 222 213
300 299 303 302 271 262 264 254 256 253 247 223 202 197 184 225 208 212 220 226 228 232 204 221 225 230 234 268 250 254 261 265 236 235 228 220 230 241 240 240 238 243 211 206 210 227 226
311 308 299 287 279 262 249 250 249 248 242 236 210 205 169 220 218 207 218 232 228 227 235 233 220 222 236 241 248 268 272 266 280 283 252 264 252 233 242 233 231 236 231 211 229 231 214
309 307 297 284 274 265 252 242 236 238 237 239 232 194 185 225 200 224 228 223 234 234 231 213 217 222 235 241 253 256 262 245 263 275 260 272 266 248 253 239 229 221 224 220 218 238 229
309 307 295 280 271 267 262 255 245 242 232 234 232 206 199 219 218 237 236 228 233 237 242 253 242 223 229 230 238 241 244 248 239 245 264 248 249 267 258 244 264 217 207 203 207 226 227
306 304 296 286 269 263 256 252 242 242 239 234 233 225 211 207 231 240 248 244 236 234 240 245 240 234 217 213 218 213 219 204 213 251 225 236 231 237 256 244 272 211 225 205 213 238 217
304 297 289 279 271 259 254 252 240 247 239 227 229 218 199 202 231 222 229 235 237 230 238 230 239 221 216 220 227 214 220 187 232 246 238 219 229 232 238 249 249 261 293 272 220 225 219
306 301 290 279 258 255 248 246 242 246 229 225 226 236 194 200 215 204 229 236 246 230 230 246 236 227 215 214 225 212 187 204 219 236 239 228 218 227 230 241 242 226 307 286 304 247 247
325 307 293 266 254 244 247 243 240 232 229 217 220 198 204 199 216 224 240 248 252 251 264 249 227 214 202 203 201 208 231 155 210 237 253 226 217 201 192 209 276 170 207 218 332 319 332